Needles, CA

11:25 AM PST on February 22, 2018 (GMT -0800)
Needles

Weather History for KEED - September, 2013

Change the Weather History Date:

Sunday, September 1, 2013

  Actual Average Record
Temperature  
Mean Temperature 86 °F 92 °F  
Max Temperature 98 °F 105 °F 120 °F (1950)
Min Temperature 75 °F 80 °F 60 °F (1932)
Degree Days  
Heating Degree Days 0    
Cooling Degree Days 22    
Growing Degree Days 36 (Base 50)    
Moisture  
Dew Point 72 °F    
Average Humidity 65    
Maximum Humidity 89    
Minimum Humidity 37    
Precipitation  
Precipitation 0.12 in 0.02 in 0.57 in (1960)
Month to date precipitation 0.02  
Year to date precipitation 3.04  
Sea Level Pressure  
Sea Level Pressure 29.78 in    
Wind  
Wind Speed 7 mph (North)    
Max Wind Speed 17 mph    
Max Gust Speed 24 mph    
Visibility 10 miles    
Events Rain , Thunderstorm    
T = Trace of Precipitation, MM = Missing Value Source: NWS Daily Summary

Daily Weather History Graph

Daily Weather History Graph

Search for Another Location

Airport or City:

Trip Planner

Search our weather history database for the weather conditions in past years. The results will help you decide how hot, cold, wet, or windy it might be!

Date:

Astronomy

Sep. 01, 2013 Rise Set
Actual Time 6:11 AM PDT 7:04 PM PDT
Civil Twilight 5:45 AM PDT 7:30 PM PDT
Nautical Twilight 5:15 AM PDT 8:00 PM PDT
Astronomical Twilight 4:43 AM PDT 8:31 PM PDT
Moon 2:42 AM PDT (9/1) 4:39 PM PDT (9/1)
Length of Visible Light 13h 44m
Length of Day
12h 52m
Waning Crescent, 13% of the Moon is Illuminated
Sep 1
Waning Crescent
Sep 5
New
Sep 12
First Quarter
Sep 19
Full
Sep 26
Last Quarter

Hourly Weather History & Observations

Time (PDT) Temp. Heat Index Dew Point Humidity Pressure Visibility Wind Dir Wind Speed Gust Speed Precip Events Conditions
12:56 AM 87.1 °F 94.5 °F 73.0 °F 63% 29.75 in 10.0 mi North 13.8 mph - N/A   Overcast
1:56 AM 80.1 °F 83.8 °F 72.0 °F 76% 29.81 in 10.0 mi ESE 11.5 mph 24.2 mph 0.00 in Rain Light Rain
2:03 AM 80.6 °F 84.6 °F 71.6 °F 74% 29.91 in 10.0 mi ESE 11.5 mph - 0.00 in Thunderstorm Overcast
2:56 AM 77.0 °F - 73.0 °F 88% 29.83 in 10.0 mi NNE 17.3 mph 23.0 mph 0.00 in Thunderstorm Mostly Cloudy
3:14 AM 77.0 °F - 71.6 °F 83% 29.92 in 10.0 mi NNE 12.7 mph - 0.00 in Thunderstorm Mostly Cloudy
3:44 AM 75.2 °F - 71.6 °F 89% 29.90 in 10.0 mi NW 3.5 mph - 0.00 in Rain Light Rain
3:56 AM 75.9 °F - 72.0 °F 87% 29.81 in 10.0 mi WNW 3.5 mph - 0.01 in Rain Light Rain
4:56 AM 77.0 °F - 72.0 °F 84% 29.81 in 7.0 mi NNW 4.6 mph - 0.06 in Rain Light Rain
5:56 AM 77.0 °F - 73.0 °F 88% 29.81 in 10.0 mi Calm Calm - 0.04 in   Scattered Clouds
6:56 AM 78.1 °F - 73.0 °F 84% 29.83 in 10.0 mi Calm Calm - 0.01 in   Clear
7:56 AM 79.0 °F - 73.0 °F 82% 29.83 in 10.0 mi Calm Calm - N/A   Clear
8:56 AM 81.0 °F 85.2 °F 72.0 °F 74% 29.83 in 10.0 mi Calm Calm - N/A   Clear
9:56 AM 82.0 °F 87.4 °F 73.0 °F 74% 29.84 in 10.0 mi Calm Calm - N/A   Clear
10:56 AM 87.1 °F 93.6 °F 72.0 °F 61% 29.82 in 10.0 mi NNE 5.8 mph - N/A   Clear
11:56 AM 87.1 °F 93.6 °F 72.0 °F 61% 29.81 in 10.0 mi Variable 4.6 mph - N/A   Clear
12:56 PM 90.0 °F 96.4 °F 71.1 °F 54% 29.79 in 10.0 mi NNW 3.5 mph - N/A   Clear
1:56 PM 93.9 °F 100.3 °F 70.0 °F 46% 29.77 in 10.0 mi NNE 3.5 mph - N/A   Clear
2:56 PM 95.0 °F 99.5 °F 68.0 °F 41% 29.74 in 10.0 mi ENE 4.6 mph - N/A   Clear
3:56 PM 97.0 °F 102.8 °F 69.1 °F 40% 29.71 in 10.0 mi North 4.6 mph - N/A   Clear
4:56 PM 98.1 °F 104.4 °F 69.1 °F 39% 29.69 in 10.0 mi ENE 4.6 mph - N/A   Clear
5:56 PM 98.1 °F 103.0 °F 68.0 °F 37% 29.68 in 10.0 mi Calm Calm - N/A   Clear
6:56 PM 95.0 °F 101.3 °F 70.0 °F 44% 29.68 in 10.0 mi Calm Calm - N/A   Clear
7:56 PM 93.9 °F 102.1 °F 72.0 °F 49% 29.69 in 10.0 mi Calm Calm - N/A   Clear
8:56 PM 93.0 °F 104.6 °F 75.0 °F 56% 29.71 in 10.0 mi West 3.5 mph - N/A   Clear
9:56 PM 91.0 °F 101.6 °F 75.0 °F 59% 29.72 in 10.0 mi Calm Calm - N/A   Clear
10:56 PM 89.1 °F 99.1 °F 75.0 °F 63% 29.72 in 10.0 mi NNW 3.5 mph - N/A   Clear
11:56 PM 88.0 °F 98.5 °F 75.9 °F 67% 29.71 in 10.0 mi North 3.5 mph - N/A   Clear